• în România
  • Lista ţărilor
  • Pe 7 zile
  • Temperatura apei
  • Hartă satelitară
  • Meteo pe hartă
  • Widget-uri
  • user-avatar
    Intrare

    Meteo pe oră la Puerto Ayacucho

    Astăzi, 25 Iunie, Luni

    Timp Temperatura Precipitaţii Vânt Presiune Umiditate
    00:00 +26°C° 2,7 mm 2 m/s 753 mmHg 93%
    01:00 +26°C° 0 mm 2 m/s 753 mmHg 94%
    02:00 +26°C° 1,5 mm 2 m/s 753 mmHg 94%
    03:00 +25°C° 1,5 mm 1 m/s 753 mmHg 94%
    04:00 +25°C° 1,5 mm 1 m/s 753 mmHg 94%
    05:00 +26°C° 1 mm 1 m/s 753 mmHg 94%
    06:00 +26°C° 1 mm 1 m/s 754 mmHg 93%
    07:00 +24°C° 1 mm 0 m/s 754 mmHg 93%
    08:00 +27°C° 0,5 mm 1 m/s 754 mmHg 91%
    09:00 +27°C° 0,5 mm 1 m/s 754 mmHg 89%
    10:00 +28°C° 0,5 mm 1 m/s 754 mmHg 86%
    11:00 +29°C° 0,5 mm 1 m/s 754 mmHg 84%
    12:00 +30°C° 0,5 mm 1 m/s 753 mmHg 81%
    13:00 +30°C° 0,5 mm 2 m/s 752 mmHg 79%
    14:00 +30°C° 0,6 mm 1 m/s 752 mmHg 79%
    15:00 +30°C° 0,6 mm 1 m/s 752 mmHg 79%
    16:00 +30°C° 0,6 mm 1 m/s 751 mmHg 80%
    17:00 +29°C° 1,2 mm 1 m/s 751 mmHg 83%
    18:00 +28°C° 1,2 mm 1 m/s 752 mmHg 87%
    19:00 +27°C° 1,2 mm 1 m/s 752 mmHg 90%
    20:00 +26°C° 1,6 mm 1 m/s 753 mmHg 91%
    21:00 +26°C° 1,6 mm 1 m/s 753 mmHg 92%
    22:00 +26°C° 1,6 mm 1 m/s 754 mmHg 93%
    23:00 +26°C° 2,5 mm 1 m/s 753 mmHg 93%

    Mâine, 26 Iunie, Marţi

    Timp Temperatura Precipitaţii Vânt Presiune Umiditate
    00:00 +25°C° 2,5 mm 1 m/s 753 mmHg 94%
    01:00 +25°C° 2,5 mm 1 m/s 753 mmHg 94%
    02:00 +25°C° 1,1 mm 1 m/s 753 mmHg 94%
    03:00 +25°C° 1,1 mm 1 m/s 753 mmHg 94%
    04:00 +25°C° 1,1 mm 1 m/s 753 mmHg 94%
    05:00 +25°C° 0,4 mm 1 m/s 753 mmHg 93%
    06:00 +26°C° 0,4 mm 1 m/s 754 mmHg 91%
    07:00 +26°C° 0,4 mm 1 m/s 754 mmHg 90%
    08:00 +26°C° 1 mm 1 m/s 754 mmHg 90%
    09:00 +26°C° 1 mm 1 m/s 754 mmHg 90%
    10:00 +26°C° 1 mm 1 m/s 754 mmHg 90%
    11:00 +27°C° 0,3 mm 1 m/s 754 mmHg 87%
    12:00 +28°C° 0,3 mm 1 m/s 753 mmHg 84%
    13:00 +27°C° 0,3 mm 0 m/s 752 mmHg 81%
    14:00 +27°C° 0,5 mm 0 m/s 752 mmHg 80%
    15:00 +27°C° 0,5 mm 0 m/s 751 mmHg 78%
    16:00 +28°C° 0,5 mm 0 m/s 751 mmHg 77%
    17:00 +29°C° 0,6 mm 1 m/s 751 mmHg 81%
    18:00 +28°C° 0,6 mm 1 m/s 752 mmHg 85%
    19:00 +27°C° 0,6 mm 1 m/s 752 mmHg 88%
    20:00 +27°C° 0,5 mm 1 m/s 753 mmHg 90%
    21:00 +26°C° 0,5 mm 1 m/s 753 mmHg 91%
    22:00 +26°C° 0,5 mm 1 m/s 754 mmHg 93%
    23:00 +26°C° 0,9 mm 1 m/s 754 mmHg 93%

    Poimâine, 27 Iunie, Miercuri

    Timp Temperatura Precipitaţii Vânt Presiune Umiditate
    00:00 +26°C° 0,9 mm 1 m/s 753 mmHg 93%
    01:00 +25°C° 0,9 mm 1 m/s 753 mmHg 93%
    02:00 +25°C° 0 mm 1 m/s 753 mmHg 93%
    03:00 +25°C° 0 mm 1 m/s 752 mmHg 93%
    04:00 +25°C° 0 mm 1 m/s 752 mmHg 93%
    05:00 +25°C° 0,1 mm 1 m/s 753 mmHg 90%
    06:00 +26°C° 0,1 mm 1 m/s 753 mmHg 88%
    07:00 +24°C° 0,1 mm 0 m/s 753 mmHg 86%
    08:00 +26°C° 0,2 mm 0 m/s 754 mmHg 81%
    09:00 +27°C° 0,2 mm 0 m/s 754 mmHg 76%
    10:00 +28°C° 0,2 mm 0 m/s 754 mmHg 71%
    11:00 +30°C° 1,8 mm 1 m/s 754 mmHg 76%
    12:00 +29°C° 1,8 mm 1 m/s 753 mmHg 81%
    13:00 +28°C° 1,8 mm 1 m/s 752 mmHg 86%
    14:00 +28°C° 0,6 mm 1 m/s 752 mmHg 85%
    15:00 +29°C° 0,6 mm 1 m/s 751 mmHg 84%
    16:00 +29°C° 0,6 mm 1 m/s 751 mmHg 83%
    17:00 +28°C° 0,5 mm 1 m/s 751 mmHg 86%
    18:00 +27°C° 0,5 mm 1 m/s 752 mmHg 89%
    19:00 +26°C° 0,5 mm 1 m/s 752 mmHg 92%
    20:00 +26°C° 1 mm 1 m/s 753 mmHg 92%
    21:00 +26°C° 1 mm 1 m/s 753 mmHg 92%
    22:00 +26°C° 1 mm 1 m/s 754 mmHg 92%
    23:00 +25°C° 0,2 mm 1 m/s 754 mmHg 92%

    28 Iunie, Joi

    Timp Temperatura Precipitaţii Vânt Presiune Umiditate
    00:00 +25°C° 0,2 mm 1 m/s 753 mmHg 92%
    01:00 +25°C° 0,2 mm 1 m/s 753 mmHg 92%
    02:00 +25°C° 0 mm 1 m/s 753 mmHg 92%
    03:00 +24°C° 0 mm 1 m/s 753 mmHg 91%
    04:00 +24°C° 0 mm 1 m/s 753 mmHg 91%
    05:00 +25°C° 0 mm 1 m/s 753 mmHg 88%
    06:00 +26°C° 0 mm 1 m/s 753 mmHg 86%
    07:00 +27°C° 0 mm 1 m/s 754 mmHg 83%
    08:00 +28°C° 0,3 mm 1 m/s 754 mmHg 78%
    09:00 +29°C° 0,3 mm 1 m/s 753 mmHg 74%
    10:00 +30°C° 0,3 mm 1 m/s 753 mmHg 69%
    11:00 +31°C° 0,3 mm 1 m/s 753 mmHg 69%
    12:00 +31°C° 0,3 mm 1 m/s 752 mmHg 69%
    13:00 +32°C° 0,3 mm 1 m/s 751 mmHg 69%
    14:00 +31°C° 0,4 mm 1 m/s 751 mmHg 70%
    15:00 +31°C° 0,4 mm 1 m/s 750 mmHg 72%
    16:00 +31°C° 0,4 mm 1 m/s 750 mmHg 73%
    17:00 +30°C° 1 mm 1 m/s 751 mmHg 78%
    18:00 +29°C° 1 mm 1 m/s 751 mmHg 84%
    19:00 +27°C° 1 mm 1 m/s 752 mmHg 89%
    20:00 +27°C° 1,8 mm 1 m/s 752 mmHg 90%
    21:00 +27°C° 1,8 mm 1 m/s 753 mmHg 91%
    22:00 +26°C° 1,8 mm 1 m/s 753 mmHg 92%
    23:00 +26°C° 1 mm 1 m/s 753 mmHg 92%

    29 Iunie, Vineri

    Timp Temperatura Precipitaţii Vânt Presiune Umiditate
    00:00 +26°C° 1 mm 1 m/s 753 mmHg 92%
    01:00 +26°C° 1 mm 1 m/s 752 mmHg 93%
    02:00 +25°C° 0,7 mm 1 m/s 752 mmHg 93%
    03:00 +25°C° 0,7 mm 2 m/s 752 mmHg 93%
    04:00 +25°C° 0,7 mm 2 m/s 752 mmHg 93%
    05:00 +25°C° 0,2 mm 2 m/s 753 mmHg 92%
    06:00 +26°C° 0,2 mm 2 m/s 753 mmHg 91%
    07:00 +26°C° 0,2 mm 2 m/s 754 mmHg 90%
    08:00 +27°C° 0,7 mm 1 m/s 754 mmHg 86%
    09:00 +29°C° 0,7 mm 1 m/s 754 mmHg 83%
    10:00 +30°C° 0,7 mm 1 m/s 753 mmHg 79%
    11:00 +30°C° 1,3 mm 1 m/s 753 mmHg 77%
    12:00 +31°C° 1,3 mm 2 m/s 752 mmHg 75%
    13:00 +31°C° 1,3 mm 2 m/s 751 mmHg 73%
    14:00 +31°C° 0,8 mm 2 m/s 751 mmHg 75%
    15:00 +31°C° 0,8 mm 2 m/s 751 mmHg 77%
    16:00 +30°C° 0,8 mm 2 m/s 750 mmHg 79%
    17:00 +29°C° 1,8 mm 1 m/s 751 mmHg 83%
    18:00 +28°C° 1,8 mm 1 m/s 752 mmHg 86%
    19:00 +27°C° 1,8 mm 1 m/s 752 mmHg 89%
    20:00 +27°C° 2 mm 1 m/s 753 mmHg 90%
    21:00 +27°C° 2 mm 1 m/s 753 mmHg 91%
    22:00 +26°C° 2 mm 1 m/s 753 mmHg 92%
    23:00 +26°C° 0,9 mm 1 m/s 753 mmHg 92%

    30 Iunie, Sâmbătă

    Timp Temperatura Precipitaţii Vânt Presiune Umiditate
    00:00 +26°C° 0,9 mm 1 m/s 753 mmHg 93%
    01:00 +25°C° 0,9 mm 1 m/s 752 mmHg 93%
    02:00 +25°C° 0 mm 1 m/s 752 mmHg 92%
    03:00 +25°C° 0 mm 1 m/s 752 mmHg 92%
    04:00 +25°C° 0 mm 1 m/s 752 mmHg 92%
    05:00 +26°C° 0 mm 1 m/s 753 mmHg 90%
    06:00 +26°C° 0 mm 1 m/s 753 mmHg 87%
    07:00 +27°C° 0 mm 1 m/s 754 mmHg 85%
    08:00 +28°C° 0,7 mm 1 m/s 753 mmHg 79%
    09:00 +30°C° 0,7 mm 1 m/s 753 mmHg 74%
    10:00 +31°C° 0,7 mm 1 m/s 753 mmHg 68%
    11:00 +31°C° 1,1 mm 1 m/s 752 mmHg 69%
    12:00 +31°C° 1,1 mm 1 m/s 752 mmHg 70%
    13:00 +32°C° 1,1 mm 1 m/s 751 mmHg 71%
    14:00 +31°C° 0,9 mm 1 m/s 751 mmHg 73%
    15:00 +31°C° 0,9 mm 1 m/s 750 mmHg 74%
    16:00 +31°C° 0,9 mm 1 m/s 750 mmHg 76%
    17:00 +30°C° 0,9 mm 1 m/s 750 mmHg 80%
    18:00 +28°C° 0,9 mm 1 m/s 751 mmHg 84%
    19:00 +27°C° 0,9 mm 1 m/s 752 mmHg 88%
    20:00 +27°C° 1,8 mm 1 m/s 752 mmHg 89%
    21:00 +27°C° 1,8 mm 1 m/s 753 mmHg 90%
    22:00 +26°C° 1,8 mm 1 m/s 753 mmHg 91%
    23:00 +26°C° 0,9 mm 1 m/s 753 mmHg 91%
    Arată mai mult